Showing default

PUNCH-WFI03, 63180

Orbit data source: Space-Track

PUNCH-WFI03, 63180 is an American payload satellite in SSO that was launched on Wed, 12 Mar 2025 UTC via an FALCON 9 launch vehicle from the Air Force Western Test Range (AFWTR). Payload-class satellites include a variety of spacecraft equipped with specific instruments for various scientific and technological missions. These include communications satellites like Starlink; space stations such as the ISS; scientific satellites like the Hubble; Earth observation satellites from companies like Planet Labs, Umbra, and HawkEye 360; GPS; miniature CubeSats for education and research; and military/defense satellites.

Loading next visibility...
Identifier
63180, 2025-047C
Orbit
SSO
Country
Flag of USUS
Related business
Manufacturer
SWRI
Mission
Operational Civil Astronomy
Bus & Motor
PUNCH, Unknown motor
Mass
64 kg wet, 64 kg dry
Launch date (UTC)
2025-03-12 (2 years ago)
Launch vehicle
FALCON 9
Launch site
Air Force Western Test Range (AFWTR)
Object type
Payload
Rocket body
Debris
Shape & HBR
Box + 1 Pan, 1.9 m
Radar Cross Section
0.625 m², Medium (>0.1 m² and < 1m²)

Expand to show TLE details & history
Last TLE update: 18 hours ago

TLE from 18 hours ago
0 PUNCH-WFI03
1 63180U 25047C   26257.45723740  .00000364  00000-0  62420-4 0  9991
2 63180  97.9568  80.8755 0008825 238.1534 121.8816 14.74428558 81213
Epoch: 2026-09-14T10:58Z
TLE epoch observation values (Epoch: 2026-09-14T10:58:25.311Z)
Latitude
-0.00003°
Longitude
-77.16722°
Altitude
653.257 km
Speed
7.529 km/s
True Right ascension
05h 23m 30s
True Declination
0° 00' 00"
Sunlit
Object was in daylight at epoch
Visualization orbit readout
Latitude
Unknown
Longitude
Unknown
Altitude
Unknown
Speed
Unknown
Apparent Right ascension
Unknown
Apparent Declination
Unknown
Sunlit
N/A
Visualization observer readout
Local Sidereal Time
21:09:34
Azimuth
Unknown
Elevation
Unknown
Doppler factor
Unknown
Orbital elements
Apogee altitude
650.214 km
Perigee altitude
637.82 km
Semi-major axis
7,022.154 km
Eccentricity
0.00088
Inclination
97.9568°
RAAN
80.8755°
Arg. of periapsis
238.1534°
True anomaly
121.96742°
Mean anomaly
121.8816°
Eccentric anomaly
121.92452°
Mean motion
3.6884 °/min
Orbital period
97.6 mins
BSTAR
0.00006242
Loading maneuver chart data...
Computing Atmospheric mass density...
Loading historical data...
Loading historical data...
Loading historical data...
Loading historical data...
Loading historical data...
Loading historical data...
Loading historical data...
Other satellites on launch #47 in the year 2025 (2025-03-12 UTC)

Documentation

Showing up to 5 results
|